Home   Weather   34°25'N, 119°41'W   Past weeks
Flag for USA

Past Weather in 34°25'N, 119°41'W, USA — Yesterday and Last 2 Weeks

Now
51 °F

Rain. Fog.


Feels Like: 51 °F
Forecast: 63 / 54 °F
Wind: No wind

Location: Santa Barbara Municipal Airport

Current Time: May 18, 2019 at 11:58:14 pm

Latest Report: May 18, 2019 at 11:33 pm


Visibility: 4 mi

Pressure: 29.95 "Hg

Humidity: 96%

Dew Point: 50 °F

Location of 34°25'N, 119°41'WLocation

Past Weather in 34°25'N, 119°41'W — Graph

°F

34°25'N, 119°41'W Temperature Yesterday

Maximum temperature yesterday: 72 °F (at 4:53 pm)
Minimum temperature yesterday: 52 °F (at 1:53 am)
Average temperature yesterday: 61 °F

High & Low Weather Summary for the Past Weeks

 TemperatureHumidityPressure
High72 °F (May 17, 4:53 pm)100% (May 16, 6:53 am)30.08 "Hg (May 16, 6:53 am)
Low49 °F (May 7, 4:53 am)37% (May 17, 9:53 am)29.76 "Hg (May 9, 5:53 pm)
Average60 °F78%29.92 "Hg
* Reported May 3 10:53 pm — May 18 10:53 pm, 34°25'N, 119°41'W. Weather by CustomWeather, © 2019

Note: Actual official high and low records may vary slightly from our data, if they occured in-between our weather recording intervals... More about our weather records

Advertising

34°25'N, 119°41'W Weather History for the Previous 24 Hours

Scroll right to see more
 ConditionsComfort  
Time TempWeatherWind HumidityBarometerVisibility
10:53 pm
Sat, May 18
51 °FLight rain. Overcast.5 mph92%29.95 "Hg10 mi
9:53 pm51 °FLight rain. Overcast.9 mph86%29.96 "Hg10 mi
8:53 pm53 °FLight rain. Overcast.12 mph64%29.93 "Hg10 mi
7:53 pm54 °FLight rain. Overcast.12 mph77%29.91 "Hg10 mi
6:53 pm58 °FOvercast.7 mph75%29.92 "Hg10 mi
5:53 pm61 °FMore clouds than sun.No wind65%29.92 "Hg10 mi
4:53 pm60 °FMore clouds than sun.7 mph72%29.95 "Hg10 mi
3:53 pm62 °FOvercast.6 mph67%29.96 "Hg10 mi
2:53 pm62 °FLight rain. Overcast.5 mph67%29.96 "Hg10 mi
1:53 pm62 °FOvercast.7 mph67%29.98 "Hg10 mi
12:53 pm63 °FSunny.6 mph63%29.99 "Hg10 mi
11:53 am62 °FSunny.7 mph67%30.00 "Hg10 mi
10:53 am60 °FPassing clouds.5 mph75%29.98 "Hg9 mi
9:53 am59 °FSunny.8 mph81%29.98 "Hg10 mi
8:53 am58 °FSunny.9 mph81%29.97 "Hg6 mi
7:53 am57 °FSunny.3 mph81%29.95 "Hg10 mi
6:53 am55 °FSunny.3 mph83%29.94 "Hg10 mi
5:53 am51 °FClear.No wind86%29.92 "Hg10 mi
4:53 am52 °FClear.3 mph86%29.92 "Hg10 mi
3:53 am53 °FClear.No wind83%29.91 "Hg10 mi
2:53 am55 °FClear.6 mph80%29.92 "Hg10 mi
1:53 am58 °FClear.No wind56%29.93 "Hg10 mi
12:53 am57 °FClear.No wind60%29.95 "Hg10 mi
11:53 pm
Fri, May 17
58 °FClear.6 mph65%29.96 "Hg10 mi
Weather by CustomWeather, © 2019

See weather overview